Regional Weather Roundup
Issued by NWS

Home | Current Version | Previous Version | Graphics & Text | Print | Product List | Glossary On
Versions: 1 2 3 4 5 6 7 8 9 10 11 12 13 14 15 16 17 18 19 20 21 22 23 24 25 26 27 28 29 30 31 32 33 34 35 36 37 38 39 40 41 42 43 44 45 46 47 48 49 50
000
ASUS45 KBOI 180810
RWRID
WEATHER ROUNDUP FOR IDAHO
NATIONAL WEATHER SERVICE BOISE ID
100 AM MST THU DEC 18 2014

NOTE: "FAIR" INDICATES FEW OR NO CLOUDS BELOW 12000 FEET
WITH NO SIGNIFICANT WEATHER AND/OR OBSTRUCTIONS TO VISIBILITY

IDZ012-014-180900-
SOUTHWEST IDAHO


CITY           SKY/WX    TMP DP  RH WIND       PRES   REMARKS
BOISE          CLOUDY    38  33  82 SE3       30.03F
CALDWELL       CLOUDY    36  28  75 CALM      30.05S
MOUNTAIN HOME  CLOUDY    36  30  78 SE16      30.04S WCI  27
$$

IDZ016-017-180900-
SOUTHCENTRAL IDAHO


CITY           SKY/WX    TMP DP  RH WIND       PRES   REMARKS
BURLEY         CLEAR     27  24  89 NE3       30.03S
JEROME         CLEAR     30  26  85 E9        30.04S WCI  22
TWIN FALLS     CLEAR     33  23  66 S6        30.03S WCI  28
$$

IDZ019>023-180900-
SOUTHEAST IDAHO


CITY           SKY/WX    TMP DP  RH WIND       PRES   REMARKS
IDAHO FALLS    CLOUDY    21  18  88 CALM      30.06S
POCATELLO      CLEAR     24  24 100 NE3       30.05F FOG
REXBURG        CLOUDY    25  25 100 NE3       30.05F FOG
$$

IDZ006-010-011-018-031-032-180900-
CENTRAL IDAHO MOUNTAINS


CITY           SKY/WX    TMP DP  RH WIND       PRES   REMARKS
MCCALL         CLOUDY    31  29  92 CALM      29.97S
HAILEY         CLEAR     27  21  80 NW8       30.05S WCI  18
STANLEY          N/A     22  17  81 E5        30.00F WCI  16
SALMON         CLEAR     18   7  62 CALM      30.06S
CHALLIS        PTCLDY    13  11  92 CALM      30.05F
$$

IDZ002-004-006-007-026-180900-
NORTHERN IDAHO


CITY           SKY/WX    TMP DP  RH WIND       PRES   REMARKS
LEWISTON       LGT RAIN  39  37  92 CALM      29.98S
LOWELL           N/A     35  33  92 CALM      30.04S
COEUR D`ALENE  CLOUDY    34  32  93 NE6       29.96S WCI  29
MULLAN PASS    CLOUDY    27  27 100 CALM      29.89S FOG
$$



USA.gov is the U.S. government's official web portal to all federal, state and local government web resources and services.